FW0983 Weather Reports


time (UTC)temp
F
wind
direction
speed
knots
gust
knots
rain 1hr
in
rain 24hr
in
rain mn
in
humidity
%
barometer
mb
20260510191531 75 338 3.5 10.4 0.00 0.00 0.00 67 1016.9
20260510190037 75 335 4.3 10.4 0.00 0.00 0.00 67 1016.8
20260510184529 76 37 2.6 11.3 0.00 0.00 0.00 68 1016.9
20260510183037 76 44 3.5 8.7 0.00 0.00 0.00 68 1016.8
20260510181542 76 28 3.5 7.8 0.00 0.00 0.00 68 1016.7
20260510180033 76 80 2.6 7.0 0.00 0.00 0.00 69 1016.8
20260510174528 76 24 2.6 8.7 0.00 0.00 0.00 69 1016.7
20260510173031 76 95 2.6 8.7 0.00 0.00 0.00 69 1016.6
20260510171530 76 51 0.9 8.7 0.00 0.00 0.00 70 1016.6
20260510170030 75 342 5.2 11.3 0.00 0.00 0.00 70 1016.7
20260510164537 75 36 5.2 9.6 0.00 0.00 0.00 71 1017.0
20260510163030 74 355 3.5 7.8 0.00 0.00 0.00 72 1016.7
20260510161529 74 19 1.7 6.1 0.00 0.00 0.00 72 1016.7
20260510160032 74 346 2.6 6.1 0.00 0.00 0.00 73 1016.7
20260510154532 73 360 1.7 8.7 0.00 0.00 0.00 73 1016.5
20260510153040 72 59 0.0 1.7 0.00 0.00 0.00 73 1016.6
20260510151532 71 118 0.9 2.6 0.00 0.00 0.00 73 1016.5
20260510150028 70 0 0.0 0.0 0.00 0.00 0.00 74 1016.3
20260510144541 69 0 0.0 3.5 0.00 0.00 0.00 74 1016.0
20260510143030 68 148 0.9 2.6 0.00 0.00 0.00 74 1015.8
20260510141530 67 134 0.9 3.5 0.00 0.00 0.00 73 1015.7
20260510140030 66 149 1.7 6.1 0.00 0.00 0.00 73 1015.6
20260510134528 65 161 0.9 3.5 0.00 0.00 0.00 73 1015.7
20260510133028 64 9 0.9 2.6 0.00 0.00 0.00 73 1015.3
20260510131529 63 0 0.0 0.0 0.00 0.00 0.00 73 1015.1
20260510130029 62 0 0.0 0.0 0.00 0.00 0.00 73 1015.2
20260510124530 61 0 0.0 0.0 0.00 0.00 0.00 72 1015.3
20260510123032 60 9 0.0 1.7 0.00 0.00 0.00 72 1015.3
20260510121529 60 0 0.0 0.9 0.00 0.00 0.00 72 1015.1
20260510120033 59 9 0.9 2.6 0.00 0.00 0.00 71 1015.1
20260510114532 59 0 0.0 0.0 0.00 0.00 0.00 70 1015.0
20260510113030 59 0 0.0 3.5 0.00 0.00 0.00 70 1015.0
20260510111528 59 360 0.9 2.6 0.00 0.00 0.00 69 1014.8
20260510110035 59 0 0.0 0.0 0.00 0.00 0.00 69 1014.4
20260510104530 58 0 0.0 0.0 0.00 0.00 0.00 68 1013.9
20260510103037 59 0 0.0 0.0 0.00 0.00 0.00 68 1013.5
20260510101527 59 0 0.0 0.0 0.00 0.00 0.00 68 1013.3
20260510100033 59 0 0.0 0.0 0.00 0.00 0.00 67 1013.4
20260510094529 60 0 0.0 2.6 0.00 0.00 0.00 67 1013.2
20260510093028 60 0 0.0 0.0 0.00 0.00 0.00 66 1013.1
20260510091528 60 180 0.0 1.7 0.00 0.00 0.00 66 1013.3
20260510090034 60 180 0.0 2.6 0.00 0.00 0.00 66 1013.2
20260510084528 60 0 0.0 0.0 0.00 0.00 0.00 64 1012.8
20260510083036 61 0 0.0 0.9 0.00 0.00 0.00 64 1012.6
20260510081531 61 154 0.0 1.7 0.00 0.00 0.00 63 1012.4
20260510080029 62 0 0.0 0.0 0.00 0.00 0.00 62 1012.2
20260510074528 62 0 0.0 1.7 0.00 0.00 0.00 62 1012.3
20260510073032 63 0 0.0 1.7 0.00 0.00 0.00 61 1012.3
20260510071541 63 154 0.9 1.7 0.00 0.00 0.00 60 1012.3
20260510070031 64 0 0.0 0.0 0.00 0.00 0.00 59 1012.3
20260510064530 64 0 0.0 0.0 0.00 0.00 0.00 59 1012.2
20260510063030 64 0 0.0 0.0 0.00 0.00 0.00 59 1012.4
20260510061530 64 0 0.0 0.0 0.00 0.00 0.00 58 1012.7
20260510060033 64 0 0.0 0.0 0.00 0.00 0.00 57 1012.5
20260510054527 64 0 0.0 0.0 0.00 0.00 0.00 56 1012.5
20260510053052 64 0 0.0 0.0 0.00 0.00 0.00 56 1012.5
20260510051538 65 0 0.0 0.0 0.00 0.00 0.00 55 1012.4
20260510050030 66 0 0.0 0.0 0.00 0.00 0.00 55 1012.2
20260510044531 66 0 0.0 0.0 0.00 0.00 0.00 54 1012.0
20260510043039 67 0 0.0 1.7 0.00 0.00 0.00 54 1012.0
20260510041530 68 154 0.9 1.7 0.00 0.00 0.00 53 1012.0
20260510040029 68 154 0.9 2.6 0.00 0.00 0.00 52 1012.0
20260510034530 69 163 1.7 4.3 0.00 0.00 0.00 51 1011.8
20260510033029 69 167 1.7 4.3 0.00 0.00 0.00 50 1011.8
20260510031530 70 148 1.7 5.2 0.00 0.00 0.00 49 1011.8
20260510030027 70 143 2.6 5.2 0.00 0.00 0.00 48 1011.8
20260510024530 70 167 3.5 5.2 0.00 0.00 0.00 47 1011.6
20260510023031 70 148 1.7 2.6 0.00 0.00 0.00 45 1011.5
20260510021531 71 141 1.7 2.6 0.00 0.00 0.00 44 1011.3
20260510020030 72 136 0.9 2.6 0.00 0.00 0.00 43 1011.0
20260510014531 73 155 0.9 2.6 0.00 0.00 0.00 42 1010.8
20260510013030 74 134 1.7 3.5 0.00 0.00 0.00 41 1010.7
20260510011537 75 159 1.7 3.5 0.00 0.00 0.00 40 1010.6
20260510010037 77 130 1.7 5.2 0.00 0.00 0.00 39 1010.6
20260510004529 78 148 3.5 6.1 0.00 0.00 0.00 39 1010.4
20260510003029 79 165 3.5 7.0 0.00 0.00 0.00 39 1010.1
20260510001528 80 153 4.3 7.8 0.00 0.00 0.00 38 1010.1
20260510000028 81 156 6.1 8.7 0.00 0.00 0.00 38 1010.0
20260509234528 81 155 5.2 7.0 0.00 0.00 0.00 39 1009.8
20260509233028 82 160 5.2 7.8 0.00 0.00 0.00 39 1009.8
20260509231532 82 159 3.5 7.8 0.00 0.00 0.00 40 1009.7
20260509230028 82 183 3.5 7.8 0.00 0.00 0.00 41 1009.6
20260509224529 82 146 2.6 8.7 0.00 0.00 0.00 42 1009.6
20260509223030 82 131 2.6 7.0 0.00 0.00 0.00 43 1009.5
20260509221539 82 150 4.3 7.8 0.00 0.00 0.00 44 1009.5
20260509220029 82 148 4.3 8.7 0.00 0.00 0.00 45 1009.5
20260509214530 82 169 3.5 8.7 0.00 0.00 0.00 47 1009.6
20260509213028 82 127 5.2 10.4 0.00 0.00 0.00 48 1009.7
20260509211530 82 87 3.5 7.0 0.00 0.00 0.00 49 1009.7
20260509210030 81 238 0.9 6.1 0.00 0.00 0.00 51 1010.0
20260509204532 81 163 4.3 7.0 0.00 0.00 0.00 52 1010.1
20260509203035 81 128 1.7 6.1 0.00 0.00 0.00 55 1010.2
20260509201528 81 155 4.3 7.0 0.00 0.00 0.00 56 1010.3
20260509200032 81 246 1.7 3.5 0.00 0.00 0.00 57 1010.6
20260509194527 80 207 1.7 5.2 0.00 0.00 0.00 60 1010.6
20260509193032 79 181 1.7 6.1 0.00 0.00 0.00 61 1010.8